Location: Habighorst
(52.7089°N, 10.2278°E)
Time: 03:37:31
(UTC+00:00)

Resurs 01 Rocket - Visible Passes

Search period start: 21 April 2026 00:00
Search period end: 01 May 2026 00:00
Orbit: 625 x 637 km, 97.7° (Epoch: 20 April)

Date Brightness Start Highest point End Pass type
(mag) Time Alt. Az. Time Alt. Az. Time Alt. Az.
21 Apr 4.4 19:19:41 10° SW 19:22:42 18° W 19:25:43 10° NW visible
22 Apr 4.7 19:42:00 10° WSW 19:43:38 12° W 19:45:16 10° WNW visible
26 Apr 4.5 19:27:08 10° SW 19:29:46 16° W 19:32:24 10° NW visible
